Vertical_Velocity
2 -1 0 -1 -1 4 1 -4 -11 4 2 2 -3 9 15 22 5 13 -1 3 15 2 10 -8 -2 -5 6 7 5 -3 10 8 -9 -0 5 3 3 -1 4 3 -3 2 -1 -13
-4 -3 -2 -4 -2 -7 -6 -1 6 7 9 6 -2 6 -4 0 1 39 -7 -3 12 23 -2 -0 15 8 13 -0 -2 11 9 5 14 -9 1 4 -1 5 2 7 7 -1 2 -12
-1 -4 2 1 1 -1 0 -6 -12 -4 -1 6 2 2 -1 -4 5 14 -5 34 22 -12 12 -1 29 12 7 4 2 7 10 0 -0 13 2 3 -4 2 2 1 2 5 3 -3
-15 -5 -1 7 -1 -3 -3 2 6 5 -7 2 -3 3 2 -4 -9 19 -3 17 5 -1 17 15 30 22 -7 -7 -4 7 28 5 -1 1 1 3 8 6 1 5 1 2 2 -0
-1 -3 24 -6 -10 -4 -9 -7 -10 0 1 2 0 1 -3 -4 12 -8 11 -2 1 0 17 10 9 -6 4 23 11 -9 -3 26 -0 -2 -3 1 7 -0 2 2 12 -2 4 2
2 -2 -1 -1 -1 -7 1 -5 -2 -3 -9 -1 -1 -3 -2 5 -3 2 -4 2 2 0 2 9 2 -5 3 5 17 24 32 33 19 -3 5 1 -6 0 0 1 5 9 11 6
2 0 -4 -0 -7 -2 -0 -0 -3 -1 -1 -0 3 -6 -2 4 -6 -4 -1 -2 -2 -3 -3 -5 4 1 2 4 13 2 3 -2 28 5 14 -6 9 4 6 9 5 3 3 0
-7 -2 -4 -3 -4 -4 -5 -6 -0 -2 -6 -7 -11 -6 -6 -11 -4 -6 -6 -3 -1 1 2 1 -2 3 -8 -2 -3 -3 -5 -2 -2 0 -1 2 3 1 -2 0 2 4 0 -2
-6 -5 -2 -5 -6 -9 -1 -4 -7 -7 -5 -0 -5 -3 0 1 -2 -2 -1 -3 -3 -2 -1 1 1 1 0 -4 -5 -1 -9 -3 8 -1 5 1 3 -1 1 -2 -4 3 -1 0
-8 -7 -1 -5 -2 1 -1 -6 -1 -6 -2 -4 -2 -3 -7 -6 -4 -2 -1 -2 -2 -2 -1 -2 -1 -0 2 1 6 6 1 -0 5 9 2 2 5 3 0 -1 0 -0 1 -0
-2 -5 -5 -1 -1 -4 -1 -0 -3 -3 -5 -1 -5 -3 -1 -3 -3 -2 -5 2 1 -1 -2 -1 1 0 0 -1 -2 -4 -3 -3 -4 -3 -2 0 1 -1 2 2 -2 -2 0 -0
-8 -5 -3 -3 -5 -7 -6 -2 -3 -3 -1 -4 -8 -4 -4 -5 -3 -2 -3 -6 -1 -0 -1 -3 -3 -1 -1 -2 -2 -3 -2 -2 -3 -1 -2 -1 -2 -2 -2 -1 -1 -2 -0 2
-2 -4 -5 -5 1 3 1 1 -5 -8 -4 -7 -4 -1 -4 -4 -1 -1 -0 3 3 -4 -5 -2 -1 0 -4 -1 -3 -2 -3 -3 -3 1 -2 -1 -1 -2 -1 -1 -1 0 0 1
-4 -5 -5 -2 -3 -3 -5 -7 -7 -5 -3 -1 -3 1 7 1 -2 -2 -4 -4 -6 -6 -6 -1 -0 2 -2 -1 -3 1 -1 0 -2 -3 -2 -2 -1 -1 -1 -0 -1 -3 -1 1
-4 -4 -4 -5 -5 -5 -3 -5 -2 -3 -3 -4 -3 -1 -0 -3 -2 1 -2 -4 -6 -3 0 -1 1 0 -0 -2 1 1 -1 -2 -0 0 0 -0 -0 -0 -1 -1 -1 -1 -0 -5
-2 -1 -3 -3 -3 -1 -1 1 -4 -5 -5 -4 -5 -7 -6 -5 -3 -6 -3 -1 0 -1 1 2 0 -3 0 -3 -0 -1 -1 0 -0 -1 -0 -1 -0 -0 -0 -1 -2 -1 -1 -4
-2 -2 -3 -3 -2 -5 -3 -4 -6 -3 -3 -2 -1 -3 -4 -3 -3 -2 -2 -3 -3 -3 -1 -1 -2 -1 -2 -1 0 0 -0 -1 -1 -2 -3 -4 -2 -1 -1 -2 -3 -4 -3 -2
-3 -3 -4 -2 -4 -5 -4 -7 -6 -1 0 -0 -1 -2 -3 -4 -3 -2 -2 -2 -2 -1 -2 1 3 0 2 4 2 -1 -3 -1 1 0 -0 -0 -1 -0 -1 -2 1 -3 -3 -3
-2 -3 -4 -2 -4 -2 -5 -3 -2 -4 -2 -1 -1 -1 -0 -0 -1 -2 -0 -0 -1 -1 -1 -1 -3 -3 -1 -2 -1 1 2 1 -2 -2 2 -1 1 -0 -1 1 -1 -0 -1 -1
-3 -3 -0 2 -0 -2 -3 11 9 10 3 1 -3 -1 -1 -2 1 -0 -1 -1 -1 -1 0 2 2 0 -1 0 1 -0 0 1 2 2 -1 -2 -6 -1 -2 -1 -1 1 3 3
-3 -1 -1 -2 -3 -3 11 -2 5 0 -0 3 -4 -2 -1 -0 -0 -1 -1 0 1 0 1 0 1 3 2 0 -0 1 1 1 2 1 0 1 1 3 1 -3 -2 -0 -0 1
0 1 -4 -5 3 2 -6 -2 -6 -3 -4 -3 2 1 -1 0 -1 -0 -0 -0 -1 -3 3 1 -1 -1 -0 2 3 -0 2 2 -0 1 2 2 1 2 2 1 1 -2 -2 -1
1 -4 -3 3 4 6 -5 -5 -4 -3 -1 -2 -2 -2 -0 -0 -0 -1 -1 -1 -1 5 0 1 1 -1 -0 -1 3 2 -2 -0 0 0 -1 0 0 -3 1 2 -1 -0 -2 -2
-6 -3 0 5 -3 -8 -6 -3 0 -2 -1 -0 -2 -4 -0 -0 1 1 2 1 1 -0 -0 1 1 1 1 -0 0 1 2 1 1 1 0 0 1 -0 -4 0 1 2 -0 -2
-8 3 -1 -5 -2 -2 -1 -1 -1 1 1 1 0 7 7 3 4 -3 -1 0 1 1 2 4 3 -1 -2 1 3 3 2 2 1 1 1 -0 0 1 -0 -4 -1 -1 2 0
16 -2 -4 -1 -1 -3 -2 -0 0 2 3 1 4 0 -4 -4 -3 0 -0 3 -1 -0 -3 -1 1 2 1 1 -0 1 0 0 1 -1 1 -0 0 1 3 -0 -0 -1 -2 0
-6 -8 -4 -5 -1 -2 -2 -2 -1 -1 0 0 -0 -2 -0 6 -0 3 -2 -5 -4 -1 4 4 2 0 2 3 1 2 1 1 2 4 1 0 1 1 -0 4 0 0 -2 -0
Height
5680 5670 5660 5650 5639 5630 5615 5606 5596 5591 5580 5568 5555 5546 5532 5524 5517 5514 5505 5501 5500 5496 5495 5490 5487 5488 5490 5490 5489 5488 5490 5485 5483 5487 5487 5487 5488 5489 5490 5488 5489 5489 5488 5488
5668 5658 5646 5634 5622 5612 5602 5590 5581 5571 5559 5539 5528 5519 5511 5503 5498 5499 5489 5483 5480 5482 5478 5473 5470 5473 5480 5477 5477 5477 5479 5474 5474 5473 5476 5477 5476 5478 5478 5478 5478 5477 5478 5478
5652 5641 5629 5617 5606 5594 5582 5569 5555 5547 5536 5522 5508 5498 5490 5485 5484 5481 5474 5469 5464 5460 5461 5462 5459 5461 5463 5464 5465 5465 5465 5463 5463 5464 5464 5466 5465 5466 5467 5468 5468 5467 5467 5467
5639 5626 5616 5605 5590 5578 5565 5552 5539 5525 5517 5510 5498 5487 5476 5468 5461 5462 5456 5455 5450 5447 5440 5443 5445 5445 5450 5449 5451 5454 5453 5450 5451 5451 5454 5454 5454 5455 5456 5457 5457 5457 5457 5456
5626 5615 5600 5584 5575 5561 5549 5539 5529 5519 5508 5495 5485 5475 5465 5455 5448 5439 5436 5432 5432 5432 5427 5428 5428 5434 5436 5437 5437 5439 5440 5436 5439 5440 5441 5443 5443 5444 5445 5445 5445 5445 5445 5444
5613 5600 5587 5574 5561 5550 5538 5527 5520 5509 5498 5487 5475 5465 5454 5444 5435 5426 5416 5414 5415 5412 5412 5413 5415 5420 5422 5423 5425 5427 5426 5424 5425 5426 5429 5429 5431 5433 5433 5433 5433 5433 5432 5432
5599 5586 5575 5565 5554 5544 5535 5524 5513 5502 5489 5478 5467 5456 5447 5437 5426 5417 5408 5401 5399 5399 5398 5401 5404 5407 5408 5410 5412 5415 5415 5416 5413 5413 5415 5417 5419 5420 5420 5419 5419 5419 5418 5417
5587 5578 5568 5559 5549 5540 5529 5519 5509 5495 5484 5473 5461 5450 5440 5430 5422 5413 5404 5396 5392 5389 5388 5390 5392 5394 5396 5398 5399 5401 5403 5404 5404 5403 5404 5405 5406 5406 5407 5407 5406 5404 5403 5402
5580 5573 5565 5555 5545 5535 5524 5513 5502 5492 5481 5470 5458 5449 5441 5431 5421 5413 5404 5396 5390 5386 5384 5383 5383 5385 5385 5386 5388 5389 5390 5392 5393 5393 5392 5395 5394 5394 5394 5394 5392 5391 5391 5389
5575 5570 5561 5552 5542 5531 5520 5509 5499 5488 5477 5466 5457 5447 5437 5429 5421 5413 5406 5398 5392 5387 5384 5382 5381 5381 5380 5380 5379 5378 5379 5380 5380 5379 5380 5383 5381 5382 5383 5385 5386 5381 5379 5377
5573 5565 5558 5549 5538 5527 5517 5507 5496 5486 5474 5466 5455 5445 5438 5430 5423 5415 5408 5404 5396 5391 5387 5384 5381 5379 5378 5376 5375 5375 5376 5376 5376 5376 5376 5378 5376 5375 5378 5376 5373 5372 5370 5367
5570 5563 5554 5543 5533 5524 5515 5504 5494 5484 5475 5463 5453 5445 5438 5431 5424 5417 5411 5405 5400 5395 5391 5388 5384 5382 5379 5377 5375 5374 5374 5373 5373 5374 5372 5372 5372 5372 5371 5370 5368 5367 5365 5362
5567 5559 5549 5540 5532 5521 5512 5502 5492 5483 5473 5463 5454 5446 5438 5432 5426 5420 5415 5410 5404 5398 5394 5391 5389 5387 5383 5381 5378 5377 5375 5374 5374 5374 5373 5372 5371 5370 5369 5367 5365 5363 5360 5357
5564 5555 5547 5538 5529 5519 5509 5500 5491 5483 5474 5466 5457 5448 5442 5435 5429 5423 5417 5411 5406 5401 5396 5395 5393 5391 5387 5384 5382 5380 5379 5377 5375 5374 5373 5372 5370 5368 5367 5365 5362 5359 5355 5352
5562 5554 5546 5537 5527 5518 5509 5500 5491 5482 5475 5466 5457 5450 5443 5436 5430 5423 5416 5411 5406 5403 5401 5398 5396 5392 5390 5387 5385 5383 5380 5379 5377 5375 5373 5371 5369 5366 5364 5361 5357 5354 5350 5344
5561 5554 5546 5536 5527 5518 5509 5500 5491 5482 5474 5466 5458 5450 5442 5435 5429 5422 5417 5414 5410 5408 5405 5402 5398 5395 5393 5389 5387 5384 5381 5379 5377 5375 5372 5370 5367 5364 5360 5356 5352 5348 5344 5339
5561 5553 5545 5536 5527 5518 5509 5500 5491 5483 5474 5466 5459 5452 5444 5437 5431 5426 5421 5417 5413 5409 5406 5402 5399 5395 5393 5390 5388 5384 5381 5379 5376 5373 5370 5367 5364 5360 5357 5352 5347 5342 5338 5332
5559 5551 5543 5535 5527 5518 5510 5501 5492 5483 5476 5468 5461 5454 5446 5439 5433 5427 5422 5418 5414 5410 5406 5403 5399 5396 5393 5390 5386 5383 5379 5376 5374 5370 5367 5363 5359 5355 5351 5347 5343 5337 5332 5326
5559 5551 5544 5535 5526 5517 5510 5501 5492 5483 5477 5469 5462 5454 5447 5440 5434 5428 5423 5418 5414 5410 5406 5402 5399 5394 5391 5387 5384 5381 5378 5374 5370 5367 5364 5360 5356 5350 5346 5342 5337 5331 5326 5319
5560 5552 5544 5534 5526 5518 5511 5503 5493 5485 5477 5468 5461 5454 5447 5442 5434 5428 5424 5419 5414 5410 5407 5402 5398 5393 5389 5385 5381 5377 5373 5370 5367 5363 5358 5354 5349 5345 5340 5335 5330 5325 5319 5313
5561 5552 5542 5534 5526 5520 5511 5500 5494 5485 5477 5469 5460 5453 5447 5441 5436 5430 5425 5420 5415 5410 5406 5401 5397 5393 5388 5383 5378 5374 5371 5366 5362 5358 5354 5350 5346 5342 5337 5331 5325 5319 5314 5308
5560 5551 5543 5536 5528 5518 5510 5501 5492 5483 5475 5467 5460 5453 5446 5441 5436 5430 5425 5420 5415 5409 5405 5400 5395 5391 5386 5381 5377 5372 5367 5363 5358 5353 5349 5344 5339 5335 5331 5325 5320 5314 5308 5302
5559 5552 5544 5536 5527 5518 5508 5499 5490 5482 5475 5467 5459 5453 5447 5441 5436 5431 5425 5419 5414 5410 5404 5398 5394 5389 5384 5379 5375 5369 5363 5359 5355 5350 5345 5340 5335 5329 5325 5320 5314 5309 5302 5296
5560 5553 5545 5536 5525 5516 5507 5498 5490 5482 5474 5467 5459 5452 5447 5440 5435 5429 5422 5417 5412 5406 5401 5397 5392 5387 5382 5376 5371 5367 5362 5356 5351 5346 5341 5336 5331 5325 5320 5315 5309 5304 5297 5291
5562 5555 5543 5533 5525 5516 5507 5499 5490 5482 5474 5467 5460 5454 5448 5440 5433 5426 5420 5416 5411 5406 5400 5395 5391 5385 5379 5374 5368 5363 5358 5353 5347 5342 5337 5331 5326 5321 5315 5310 5304 5298 5292 5285
5563 5552 5543 5534 5525 5516 5507 5498 5490 5482 5475 5467 5460 5453 5445 5438 5431 5426 5420 5416 5409 5405 5399 5394 5389 5383 5377 5372 5366 5361 5355 5349 5344 5338 5333 5327 5322 5317 5311 5305 5299 5292 5286 5279
5562 5552 5543 5535 5525 5517 5508 5500 5491 5482 5474 5466 5459 5451 5444 5438 5431 5426 5419 5413 5409 5404 5399 5394 5388 5382 5377 5371 5365 5359 5354 5348 5342 5336 5330 5324 5318 5312 5306 5299 5292 5284 5277 5270